Location: Gazzo Veronese
(45.1333°N, 11.0667°E)
Time: 14:31:17
(UTC+00:00)

Daily predictions for brighter satellites

Satellite Brightness Start Highest point End
(mag) Time Altitude Azimuth Time Altitude Azimuth Time Altitude Azimuth
Cosmos 2084 Rocket 3.8 18:09:50 10° NW 18:14:18 74° SW 18:18:46 10° SSE
Cosmos 1758 Rocket 4.5 18:11:37 10° NNE 18:15:23 28° ENE 18:19:06 10° SE
Abrixas rocket 2.7 18:13:55 10° W 18:16:47 49° N 18:19:42 10° ENE
STARLINK-1103 4.2 18:13:09 10° WNW 18:17:13 55° SW 18:21:15 10° SE
Cosmos 1953 2.7 18:17:32 10° SSE 18:21:16 41° E 18:25:02 10° NNE
Cosmos 1992 Rocket 4.1 18:16:18 10° NNW 18:21:29 62° ENE 18:26:37 10° SSE
STARLINK-1101 4.3 18:18:11 10° WNW 18:22:13 50° SW 18:26:13 10° SE
Cosmos 2228 4.3 18:19:21 10° SE 18:22:36 21° E 18:25:53 10° NE
Cosmos 1437 3.9 18:20:17 10° NNE 18:22:47 23° ENE 18:25:18 10° SE
Cosmos 1818 4.1 18:19:42 10° S 18:24:39 37° ESE 18:29:38 10° NE
STARLINK-1102 4.5 18:23:09 10° WNW 18:27:08 46° SW 18:31:06 10° SSE
Cosmos 2263 4.4 18:23:27 10° NNW 18:28:59 55° ENE 18:34:28 10° SE
Meteor 2-15 Rocket 4.4 18:24:47 10° S 18:30:48 73° E 18:36:52 10° NNE
Cosmos 1470 3.2 18:27:34 10° SSW 18:31:25 68° W 18:35:20 10° N
Cosmos 1943 3.4 18:27:45 10° S 18:33:11 50° ESE 18:38:40 10° NE
SL-08 RB Rocket 4.3 18:29:17 10° SE 18:33:28 38° ENE 18:37:44 10° N
ARGOS Delta rocket 4.2 18:29:18 10° SSE 18:34:33 88° E 18:40:03 10° N
Aureole 2 Rocket 2.6 18:34:10 10° NNW 18:37:39 72° WSW 18:41:02 10° SSE
CZ-2C R/B 2.9 18:33:08 10° SSE 18:38:00 64° ENE 18:42:44 10° N
BREEZE-M DEB (TANK) 2.3 18:31:35 10° WSW 18:38:20 89° S 18:40:55 10° ENE
H-2A R/B 2.0 18:42:30 10° SSE 18:47:45 87° ENE 18:52:53 10° NNW
NOSS 3-4 (A) 4.2 18:46:15 10° NNW 18:52:58 50° NE 18:58:53 16° ESE
NOSS 3-4 (C) 4.2 18:46:21 10° NNW 18:53:04 50° NE 18:58:59 16° ESE
Cosmos 1656 Rocket 3.8 18:49:22 10° NNW 18:54:59 59° ENE 18:59:39 15° SE
SL-16 R/B 4.4 18:51:50 10° WSW 18:56:42 29° NW 19:01:37 10° N
CZ-2C R/B 3.2 18:53:45 10° NNE 18:58:24 33° E 19:03:03 10° SSE
Resurs 1-3 4.1 18:55:38 15° SE 18:58:53 41° ENE 19:03:00 10° N
Aureole 1 Rocket 4.5 18:51:50 10° S 18:59:11 47° ESE 19:05:09 10° NE
NOSS 3-3 (A) 4.1 18:55:28 10° SW 19:01:19 76° NW 19:07:59 10° NE
NOSS 3-3 (C) 4.1 18:55:34 10° SW 19:01:25 77° NW 19:08:05 10° NE
MetOp-A 4.3 18:56:23 10° SSE 19:01:31 56° ENE 19:06:45 10° N
Cosmos 1726 2.1 18:58:05 10° S 19:01:49 89° W 19:05:35 10° N
Cosmos 2251 Rocket 4.1 18:56:38 10° SSW 19:01:57 64° WNW 19:07:19 10° NNE
ARGOS 3.2 18:58:07 10° SSE 19:03:32 82° WSW 19:08:57 10° NNW
STARLINK-60 3.6 19:03:59 10° SSW 19:07:00 35° SE 19:07:54 29° ESE
Cosmos 2184 Rocket 4.0 19:00:42 10° N 19:07:02 85° E 19:13:15 10° S
SJ-6B 3.0 19:02:57 10° S 19:07:03 82° WSW 19:11:13 10° NNW
ISS -1.8 19:05:16 10° W 19:07:59 23° SW 19:10:16 12° S
BREEZE M DEB (TANK) 3.6 19:07:31 10° S 19:10:14 26° ESE 19:15:52 10° ENE
Meteor 2-10 4.2 19:05:15 10° SSW 19:10:41 82° W 19:16:21 10° N
USA 186 3.0 19:08:55 10° S 19:12:09 44° W 19:15:17 10° NNW
STARLINK-67 4.1 19:11:54 10° NW 19:14:05 24° NNE 19:14:43 21° NE
DMSP B5D2-2 4.1 19:10:34 10° NNE 19:15:42 55° E 19:20:49 10° S
Cosmos 1603 4.3 19:13:27 10° SW 19:19:00 59° WNW 19:24:34 10° NNE
FREGAT/IRIS 4.5 19:16:42 10° SSW 19:19:05 27° W 19:21:29 10° NW
Cosmos 2058 Rocket 3.3 19:16:34 15° SSE 19:20:04 47° E 19:24:24 10° NNE
Ariane Rocket 4.3 19:16:06 10° SSW 19:20:51 40° W 19:25:38 10° NNW
MOS 1 Rocket 3.6 19:18:14 10° NNE 19:23:33 59° E 19:28:55 10° S
Resurs 01 Rocket 1.8 19:21:42 28° SE 19:23:43 52° ENE 19:28:02 10° N
USA 234 3.5 19:18:33 10° ENE 19:24:48 46° SE 19:31:01 10° SSW
ATLAS 2AS CENTAUR R/B 2.8 19:17:55 10° NW 19:25:35 76° NE 19:29:58 25° SE
Meteor 1-16 Rocket 4.4 19:22:46 10° SSW 19:28:07 70° WNW 19:33:40 10° N
Cosmos 2154 Rocket 4.0 19:22:54 10° N 19:29:18 81° E 19:34:52 14° S
Cosmos 1190 Rocket 4.0 19:24:40 10° S 19:29:51 56° ESE 19:35:02 10° NNE
Nadezhda 1 Rocket 4.0 19:24:31 10° S 19:30:56 86° E 19:37:19 10° N
Cosmos 1140 Rocket 3.6 19:26:13 10° S 19:31:13 50° ESE 19:36:12 10° NNE
SL-4 R/B 1.5 19:28:55 10° WSW 19:32:19 80° NNW 19:33:43 33° NE
Spot 2 Rocket 4.2 19:31:32 30° ESE 19:33:03 37° ENE 19:37:43 10° N
Cosmos 1726 Rocket 3.6 19:29:01 10° S 19:33:25 80° W 19:37:53 10° N
Cosmos 1340 Rocket 2.7 19:32:48 23° S 19:35:10 67° E 19:39:12 10° NNE
ATLAS 5 CENTAUR R/B 1.5 19:33:11 10° SSW 19:37:10 51° ESE 19:41:36 10° NE
Cosmos 1328 4.4 19:36:40 10° NNW 19:40:37 57° W 19:43:15 20° SSW
SL-24 R/B - RUBIN 2 4.2 19:35:12 10° SSW 19:40:39 68° ESE 19:46:52 10° NE
Cosmos 1703 4.2 19:42:11 10° NNW 19:46:00 47° W 19:48:40 18° SSW
Cosmos 2366 rocket 4.5 19:42:24 10° N 19:48:07 38° ENE 19:49:24 35° E
Cosmos 614 Rocket 4.2 19:43:00 10° SSW 19:48:13 73° WNW 19:53:27 10° NNE
Cosmos 1300 3.3 19:50:48 41° NE 19:50:48 41° NE 19:53:39 10° NNE
SPOT 3 Rocket 4.2 19:45:41 13° S 19:50:17 53° W 19:55:23 10° NNW
Cosmos 2369 Rocket 4.1 19:48:05 10° NW 19:52:38 25° WSW 19:57:07 10° SSW
Abrixas rocket 3.0 19:49:48 10° WNW 19:52:19 43° NNW 19:52:19 43° NNW
IGS 5A 4.4 19:53:17 33° ENE 19:53:17 33° ENE 19:56:41 10° N
COSMOS 2455 2.9 19:48:46 10° NNW 19:54:46 62° NE 19:56:39 42° ESE
Cosmos 921 Rocket 2.7 19:52:40 10° NNW 19:56:52 76° ENE 19:57:12 71° ESE
Cosmos 676 Rocket 4.0 19:56:21 39° SSE 19:58:09 60° ESE 20:03:20 10° NNE
Cosmos 407 Rocket 3.7 19:54:27 10° SSW 19:59:35 70° WNW 20:04:43 10° NNE
ERS-1 Rocket 3.6 20:07:39 38° ENE 20:07:39 38° ENE 20:12:13 10° N
ERBS 4.5 20:08:14 10° NNW 20:10:29 20° NNE 20:10:29 20° NNE
Landsat 7 3.9 20:11:38 59° ENE 20:11:38 59° ENE 20:16:19 10° N
SPOT 1/Viking Rocket 3.6 20:14:31 56° E 20:14:47 57° ENE 20:19:55 10° N
MetOp-B 4.1 20:15:08 52° S 20:16:30 82° WSW 20:21:54 10° NNW
Cosmos 1461 3.2 20:15:13 10° NW 20:19:45 68° WSW 20:19:51 68° SW
Cosmos 1954 Rocket 3.9 20:21:02 45° SSW 20:22:41 88° WNW 20:27:57 10° NNE
CZ-4C R/B 4.2 20:28:08 10° NNW 20:33:49 27° NNE 20:37:07 20° ENE
Cosmos 1697 Rocket 4.0 20:30:38 10° N 20:35:23 26° NE 20:35:27 26° NE
SPOT 5 3.7 20:36:47 37° NNE 20:36:47 37° NNE 20:39:39 10° N
Cosmos 1076 Rocket 4.2 20:31:55 10° N 20:35:03 48° N 20:35:03 48° N
CZ-2C R/B 4.1 20:34:03 10° N 20:38:41 34° WNW 20:43:19 10° SW
Cosmos 2058 4.1 20:41:37 10° NNW 20:44:18 40° NNW 20:44:18 40° NNW
Cosmos 1763 Rocket 4.0 20:45:22 10° NNW 20:49:35 52° NNE 20:49:35 52° NNE
Terra 2.8 20:55:02 40° NNE 20:55:02 40° NNE 20:58:16 10° N
RESURS DK-1 4.4 20:54:32 10° N 20:56:27 22° N 20:56:27 22° N
Resurs 01 Rocket 4.0 20:59:16 15° WSW 21:00:32 16° W 21:03:20 10° NW
Cosmos 2218 Rocket 4.3 20:55:26 10° NNW 21:01:30 59° W 21:02:26 53° SW
Cosmos 1980 Rocket 3.7 20:59:04 10° N 21:03:10 24° NE 21:03:10 24° NE
USA 234 3.6 21:01:31 10° NE 21:07:58 63° NNW 21:14:24 10° WSW
Cosmos 1656 4.1 21:05:56 10° NNW 21:10:37 59° N 21:10:37 59° N
ATLAS 2AS CENTAUR R/B 4.2 21:09:57 10° WNW 21:15:45 25° WSW 21:17:26 23° SW
ATLAS 5 CENTAUR R/B 3.7 21:18:29 10° W 21:22:06 25° NW 21:26:06 10° NNE
Cosmos 2082 Rocket 4.5 21:33:30 14° NE 21:33:30 14° NE 21:34:17 10° NE
Mayak 1.5 21:30:04 10° NNE 21:30:34 13° NNE 21:30:34 13° NNE
COSMOS 2455 4.5 21:35:30 10° NW 21:39:49 24° W 21:39:49 24° W
Nadezhda 3 Rocket 4.4 21:43:49 60° NNW 21:43:49 60° NNW 21:49:01 10° N
COSMOS 2406 4.4 21:45:30 38° N 21:45:30 38° N 21:49:03 10° NNE
Cosmos 1833 Rocket 4.4 21:47:49 25° NNE 21:47:49 25° NNE 21:50:02 10° NNE
ATLAS CENTAUR R/B 4.3 21:47:06 10° NNW 21:47:36 13° NNW 21:47:36 13° NNW
Cosmos 1697 Rocket 4.2 22:14:10 10° NNW 22:17:11 31° NW 22:17:11 31° NW
CZ-4C R/B 3.2 22:16:17 10° NW 22:22:18 64° N 22:22:18 64° N
SL-16 R/B 3.9 22:29:05 10° NNW 22:32:21 28° NNE 22:32:21 28° NNE
Cosmos 2360 Rocket 4.3 22:36:10 10° N 22:39:34 20° NE 22:39:34 20° NE
Cosmos 2322 Rocket 3.9 22:39:00 10° NNW 22:42:08 27° NNE 22:42:08 27° NNE
Cosmos 1980 Rocket 4.0 22:42:31 10° NNW 22:44:56 26° NW 22:44:56 26° NW
Cosmos 2082 Rocket 4.0 23:15:18 28° NNW 23:15:18 28° NNW 23:18:27 10° NNE
Cosmos 2344 4.4 23:08:55 10° NW 23:18:38 71° WSW 23:18:38 71° WSW
SL-16 R/B 4.3 23:29:18 23° ENE 23:29:37 23° ENE 23:34:20 10° N
Cosmos 2219 Rocket 4.2 23:35:56 10° N 23:40:11 21° NE 23:40:11 21° NE
